Weather History for Glendale Luke AFB, AZ

Change the Weather History Date:

Tuesday, August 27, 2013

  Actual Average Record
Temperature  
Mean Temperature 90 °F -  
Max Temperature 103 °F 104 °F 116 °F (1981)
Min Temperature 77 °F 72 °F 57 °F (1978)
Cooling Degree Days 25    
Growing Degree Days 40 (Base 50)    
Moisture  
Dew Point 67 °F    
Average Humidity 49    
Maximum Humidity 79    
Minimum Humidity 26    
Precipitation  
Precipitation 0.00 in - - ()
Sea Level Pressure  
Sea Level Pressure 29.74 in    
Wind  
Wind Speed 5 mph (West)    
Max Wind Speed 12 mph    
Max Gust Speed -    
Visibility 10 miles    
Events      
Averages and records for this station are not official NWS values.
T = Trace of Precipitation, MM = Missing Value Source: NWS Daily Summary

Daily Weather History Graph

Daily Weather History Graph

Search for Another Location

Airport:

Trip Planner

Search our weather history database for the weather conditions in past years. The results will help you decide how hot, cold, wet, or windy it might be!

Date:

Astronomy

Aug. 27, 2013 Rise Set
Actual Time 6:00 AM MST 7:00 PM MST
Civil Twilight 5:34 AM MST 7:26 PM MST
Nautical Twilight 5:04 AM MST 7:56 PM MST
Astronomical Twilight 4:33 AM MST 8:27 PM MST
Moon 11:19 PM MST (8/27) 12:40 PM MST (8/27)
Length of Visible Light 13h 51m
Length of Day
13h 00m
Waning Gibbous, 56% of the Moon is Illuminated
Aug 27
Waning Gibbous
Aug 28
Last Quarter
Sep 5
New
Sep 12
First Quarter
Sep 19
Full

Hourly Weather History & Observations

Time (MST) Temp. Heat Index Dew Point Humidity Pressure Visibility Wind Dir Wind Speed Gust Speed Precip Events Conditions
12:58 AM 77.7 °F - 70.7 °F 79% 29.81 in 10.0 mi North 5.8 mph - N/A   Clear
1:58 AM 78.6 °F - 70.5 °F 76% 29.79 in 10.0 mi NW 2.3 mph - N/A   Partly Cloudy
2:58 AM 79.5 °F - 69.8 °F 72% 29.77 in 10.0 mi Calm Calm - N/A   Mostly Cloudy
3:58 AM 81.1 °F 84.2 °F 68.7 °F 66% 29.77 in 10.0 mi NW 4.6 mph - N/A   Mostly Cloudy
4:58 AM 81.5 °F 84.6 °F 68.5 °F 65% 29.76 in 10.0 mi North 5.8 mph - N/A   Overcast
5:58 AM 80.1 °F 84.0 °F 72.3 °F 77% 29.77 in 10.0 mi Calm Calm - N/A   Mostly Cloudy
6:58 AM 80.1 °F 84.2 °F 72.9 °F 79% 29.79 in 10.0 mi NNE 5.8 mph - N/A   Scattered Clouds
7:58 AM 82.0 °F 86.7 °F 72.0 °F 71% 29.81 in 10.0 mi NNW 2.3 mph - N/A   Scattered Clouds
8:58 AM 86.5 °F 92.1 °F 71.1 °F 60% 29.81 in 10.0 mi SE 4.6 mph - 0.00 in   Clear
9:58 AM 89.4 °F 94.4 °F 69.4 °F 52% 29.80 in 10.0 mi SSE 4.6 mph - N/A   Scattered Clouds
10:58 AM 92.1 °F 98.8 °F 70.9 °F 50% 29.79 in 10.0 mi Variable 2.3 mph - N/A   Scattered Clouds
11:58 AM 97.3 °F 98.9 °F 63.1 °F 32% 29.77 in 10.0 mi ESE 9.2 mph - N/A   Scattered Clouds
12:58 PM 99.9 °F 102.1 °F 63.0 °F 30% 29.75 in 10.0 mi Variable 6.9 mph - N/A   Scattered Clouds
1:58 PM 102.4 °F 103.9 °F 61.3 °F 26% 29.72 in 10.0 mi SE 11.5 mph - N/A   Scattered Clouds
2:58 PM 103.3 °F 105.4 °F 61.7 °F 26% 29.70 in 10.0 mi SW 10.4 mph - N/A   Clear
3:58 PM 102.9 °F 104.8 °F 61.9 °F 26% 29.68 in 10.0 mi WSW 9.2 mph - N/A   Clear
4:58 PM 102.9 °F 104.8 °F 62.1 °F 26% 29.67 in 10.0 mi SW 10.4 mph - N/A   Clear
5:58 PM 102.4 °F 103.9 °F 61.2 °F 26% 29.67 in 10.0 mi WSW 5.8 mph - N/A   Clear
6:58 PM 100.0 °F 101.8 °F 62.4 °F 29% 29.67 in 10.0 mi WSW 5.8 mph - N/A   Clear
7:58 PM 97.0 °F 99.3 °F 64.6 °F 34% 29.69 in 10.0 mi SSW 5.8 mph - N/A   Partly Cloudy
8:58 PM 93.2 °F 96.2 °F 66.4 °F 41% 29.70 in 10.0 mi SW 5.8 mph - N/A   Clear
9:38 PM 91.4 °F 95.4 °F 68.0 °F 46% 29.75 in 4.0 mi WSW 2.3 mph - N/A   Haze
9:48 PM 91.4 °F 96.8 °F 69.8 °F 49% 29.75 in 6.0 mi NNW 2.3 mph - N/A   Haze
9:58 PM 90.1 °F 94.4 °F 68.7 °F 49% 29.71 in 9.0 mi Variable 2.3 mph - N/A   Mostly Cloudy
10:58 PM 91.6 °F 95.2 °F 67.6 °F 45% 29.70 in 10.0 mi North 6.9 mph - N/A   Scattered Clouds
11:58 PM 91.6 °F 93.1 °F 64.4 °F 40% 29.70 in 10.0 mi North 5.8 mph - N/A   Clear